date,time,SUV Intensity [MED/Hr],UV Index,Daily total [MED],Since Last [MED]
14/09/2023,00:01:15,0.000,0.0,0.0,0.0
14/09/2023,00:02:16,0.000,0.0,0.0,0.0
14/09/2023,00:03:16,0.000,0.0,0.0,0.0
14/09/2023,00:04:16,0.000,0.0,0.0,0.0
14/09/2023,00:05:15,-0.000,0.0,0.0,0.0
14/09/2023,00:06:15,0.001,0.0,0.0,0.0
14/09/2023,00:07:16,-0.001,0.0,0.0,0.0
14/09/2023,00:08:15,0.000,0.0,0.0,0.0
14/09/2023,00:09:16,-0.001,0.0,0.0,0.0
14/09/2023,00:10:15,0.000,0.0,0.0,0.0
14/09/2023,00:11:15,0.000,0.0,0.0,0.0
14/09/2023,00:12:16,0.001,0.0,0.0,0.0
14/09/2023,00:13:16,-0.001,0.0,0.0,0.0
14/09/2023,00:14:16,0.000,0.0,0.0,0.0
14/09/2023,00:15:15,-0.001,0.0,0.0,0.0
14/09/2023,00:16:15,0.000,0.0,0.0,0.0
14/09/2023,00:17:16,0.000,0.0,0.0,0.0
14/09/2023,00:18:15,0.000,0.0,0.0,0.0
14/09/2023,00:19:16,0.000,0.0,0.0,0.0
14/09/2023,00:20:15,0.000,0.0,0.0,0.0
14/09/2023,00:21:15,0.000,0.0,0.0,0.0
14/09/2023,00:22:15,-0.000,0.0,0.0,0.0
14/09/2023,00:23:15,-0.001,0.0,0.0,0.0
14/09/2023,00:24:15,0.000,0.0,0.0,0.0
14/09/2023,00:25:16,0.001,0.0,0.0,0.0
14/09/2023,00:26:15,0.001,0.0,0.0,0.0
14/09/2023,00:27:16,0.000,0.0,0.0,0.0
14/09/2023,00:28:16,0.000,0.0,0.0,0.0
14/09/2023,00:29:15,0.001,0.0,0.0,0.0
14/09/2023,00:30:16,0.001,0.0,0.0,0.0
14/09/2023,00:31:16,0.000,0.0,0.0,0.0
14/09/2023,00:32:16,-0.000,0.0,0.0,0.0
14/09/2023,00:33:16,-0.000,0.0,0.0,0.0
14/09/2023,00:34:15,-0.000,0.0,0.0,0.0
14/09/2023,00:35:16,-0.000,0.0,0.0,0.0
14/09/2023,00:36:15,0.000,0.0,0.0,0.0
14/09/2023,00:37:16,0.000,0.0,0.0,0.0
14/09/2023,00:38:16,-0.001,0.0,0.0,0.0
14/09/2023,00:39:16,-0.001,0.0,0.0,0.0
14/09/2023,00:40:15,0.000,0.0,0.0,0.0
14/09/2023,00:41:16,0.001,0.0,0.0,0.0
14/09/2023,00:42:16,0.000,0.0,0.0,0.0
14/09/2023,00:43:16,-0.001,0.0,0.0,0.0
14/09/2023,00:44:15,0.000,0.0,0.0,0.0
14/09/2023,00:45:16,-0.000,0.0,0.0,0.0
14/09/2023,00:46:15,0.000,0.0,0.0,0.0
14/09/2023,00:47:15,-0.001,0.0,0.0,0.0
14/09/2023,00:48:16,0.000,0.0,0.0,0.0
14/09/2023,00:49:15,-0.001,0.0,0.0,0.0
14/09/2023,00:50:16,0.001,0.0,0.0,0.0
14/09/2023,00:51:15,0.000,0.0,0.0,0.0
14/09/2023,00:52:13,0.000,0.0,0.0,0.0
14/09/2023,00:53:14,-0.000,0.0,0.0,0.0
14/09/2023,00:54:16,0.000,0.0,0.0,0.0
14/09/2023,00:55:15,0.000,0.0,0.0,0.0
14/09/2023,00:56:15,-0.001,0.0,0.0,0.0
14/09/2023,00:57:16,0.000,0.0,0.0,0.0
14/09/2023,00:58:16,-0.001,0.0,0.0,0.0
14/09/2023,00:59:15,-0.001,0.0,0.0,0.0
14/09/2023,01:00:15,0.000,0.0,0.0,0.0
14/09/2023,01:01:16,0.000,0.0,0.0,0.0
14/09/2023,01:02:15,0.000,0.0,0.0,0.0
14/09/2023,01:03:15,0.000,0.0,0.0,0.0
14/09/2023,01:04:16,0.000,0.0,0.0,0.0
14/09/2023,01:05:16,0.001,0.0,0.0,0.0
14/09/2023,01:06:16,-0.000,0.0,0.0,0.0
14/09/2023,01:07:15,0.000,0.0,0.0,0.0
14/09/2023,01:08:15,0.000,0.0,0.0,0.0
14/09/2023,01:09:13,0.001,0.0,0.0,0.0
14/09/2023,01:10:13,0.000,0.0,0.0,0.0
14/09/2023,01:11:15,0.000,0.0,0.0,0.0
14/09/2023,01:12:16,0.000,0.0,0.0,0.0
14/09/2023,01:13:15,0.000,0.0,0.0,0.0
14/09/2023,01:14:15,0.001,0.0,0.0,0.0
14/09/2023,01:15:15,-0.001,0.0,0.0,0.0
14/09/2023,01:16:15,0.000,0.0,0.0,0.0
14/09/2023,01:17:16,0.000,0.0,0.0,0.0
14/09/2023,01:18:16,0.000,0.0,0.0,0.0
14/09/2023,01:19:16,0.000,0.0,0.0,0.0
14/09/2023,01:20:16,0.000,0.0,0.0,0.0
14/09/2023,01:21:16,0.000,0.0,0.0,0.0
14/09/2023,01:22:15,0.000,0.0,0.0,0.0
14/09/2023,01:23:16,-0.000,0.0,0.0,0.0
14/09/2023,01:24:16,0.000,0.0,0.0,0.0
14/09/2023,01:25:16,0.000,0.0,0.0,0.0
14/09/2023,01:26:15,0.000,0.0,0.0,0.0
14/09/2023,01:27:16,0.000,0.0,0.0,0.0
14/09/2023,01:28:15,0.000,0.0,0.0,0.0
14/09/2023,01:29:15,0.000,0.0,0.0,0.0
14/09/2023,01:30:16,0.000,0.0,0.0,0.0
14/09/2023,01:31:15,0.001,0.0,0.0,0.0
14/09/2023,01:32:15,-0.000,0.0,0.0,0.0
14/09/2023,01:33:16,0.000,0.0,0.0,0.0
14/09/2023,01:34:15,0.000,0.0,0.0,0.0
14/09/2023,01:35:15,-0.000,0.0,0.0,0.0
14/09/2023,01:36:16,0.001,0.0,0.0,0.0
14/09/2023,01:37:15,0.000,0.0,0.0,0.0
14/09/2023,01:38:16,0.000,0.0,0.0,0.0
14/09/2023,01:39:16,-0.001,0.0,0.0,0.0
14/09/2023,01:40:16,0.000,0.0,0.0,0.0
14/09/2023,01:41:16,-0.000,0.0,0.0,0.0
14/09/2023,01:42:16,0.001,0.0,0.0,0.0
14/09/2023,01:43:16,0.001,0.0,0.0,0.0
14/09/2023,01:44:16,0.000,0.0,0.0,0.0
14/09/2023,01:45:16,0.000,0.0,0.0,0.0
14/09/2023,01:46:16,0.001,0.0,0.0,0.0
14/09/2023,01:47:16,0.000,0.0,0.0,0.0
14/09/2023,01:48:16,0.001,0.0,0.0,0.0
14/09/2023,01:49:15,0.000,0.0,0.0,0.0
14/09/2023,01:50:16,0.000,0.0,0.0,0.0
14/09/2023,01:51:15,0.000,0.0,0.0,0.0
14/09/2023,01:52:16,0.000,0.0,0.0,0.0
14/09/2023,01:53:15,0.001,0.0,0.0,0.0
14/09/2023,01:54:16,0.000,0.0,0.0,0.0
14/09/2023,01:55:16,0.000,0.0,0.0,0.0
14/09/2023,01:56:15,-0.001,0.0,0.0,0.0
14/09/2023,01:57:16,0.000,0.0,0.0,0.0
14/09/2023,01:58:15,0.001,0.0,0.0,0.0
14/09/2023,01:59:15,0.000,0.0,0.0,0.0
14/09/2023,02:00:16,-0.000,0.0,0.0,0.0
14/09/2023,02:01:16,-0.001,0.0,0.0,0.0
14/09/2023,02:02:16,0.001,0.0,0.0,0.0
14/09/2023,02:03:16,0.000,0.0,0.0,0.0
14/09/2023,02:04:15,0.001,0.0,0.0,0.0
14/09/2023,02:05:15,0.000,0.0,0.0,0.0
14/09/2023,02:06:16,0.000,0.0,0.0,0.0
14/09/2023,02:07:15,0.000,0.0,0.0,0.0
14/09/2023,02:08:16,-0.000,0.0,0.0,0.0
14/09/2023,02:09:15,0.000,0.0,0.0,0.0
14/09/2023,02:10:15,0.000,0.0,0.0,0.0
14/09/2023,02:11:16,0.000,0.0,0.0,0.0
14/09/2023,02:12:15,0.000,0.0,0.0,0.0
14/09/2023,02:13:15,0.000,0.0,0.0,0.0
14/09/2023,02:14:16,0.001,0.0,0.0,0.0
14/09/2023,02:15:15,0.001,0.0,0.0,0.0
14/09/2023,02:16:15,0.001,0.0,0.0,0.0
14/09/2023,02:17:16,0.000,0.0,0.0,0.0
14/09/2023,02:18:16,0.001,0.0,0.0,0.0
14/09/2023,02:19:14,-0.001,0.0,0.0,0.0
14/09/2023,02:20:13,0.001,0.0,0.0,0.0
14/09/2023,02:21:15,0.001,0.0,0.0,0.0
14/09/2023,02:22:16,0.000,0.0,0.0,0.0
14/09/2023,02:23:16,0.000,0.0,0.0,0.0
14/09/2023,02:24:16,0.001,0.0,0.0,0.0
14/09/2023,02:25:16,0.000,0.0,0.0,0.0
14/09/2023,02:26:16,-0.000,0.0,0.0,0.0
14/09/2023,02:27:16,0.000,0.0,0.0,0.0
14/09/2023,02:28:16,-0.001,0.0,0.0,0.0
14/09/2023,02:29:16,0.000,0.0,0.0,0.0
14/09/2023,02:30:16,0.000,0.0,0.0,0.0
14/09/2023,02:31:16,0.001,0.0,0.0,0.0
14/09/2023,02:32:16,0.000,0.0,0.0,0.0
14/09/2023,02:33:16,0.000,0.0,0.0,0.0
14/09/2023,02:34:16,0.001,0.0,0.0,0.0
14/09/2023,02:35:16,0.001,0.0,0.0,0.0
14/09/2023,02:36:16,0.000,0.0,0.0,0.0
14/09/2023,02:37:15,-0.001,0.0,0.0,0.0
14/09/2023,02:38:16,0.000,0.0,0.0,0.0
14/09/2023,02:39:16,0.000,0.0,0.0,0.0
14/09/2023,02:40:16,0.001,0.0,0.0,0.0
14/09/2023,02:41:16,0.000,0.0,0.0,0.0
14/09/2023,02:42:16,-0.001,0.0,0.0,0.0
14/09/2023,02:43:15,0.001,0.0,0.0,0.0
14/09/2023,02:44:15,0.000,0.0,0.0,0.0
14/09/2023,02:45:15,-0.000,0.0,0.0,0.0
14/09/2023,02:46:16,0.000,0.0,0.0,0.0
14/09/2023,02:47:14,0.000,0.0,0.0,0.0
14/09/2023,02:48:14,-0.000,0.0,0.0,0.0
14/09/2023,02:49:16,0.000,0.0,0.0,0.0
14/09/2023,02:50:15,0.000,0.0,0.0,0.0
14/09/2023,02:51:16,0.001,0.0,0.0,0.0
14/09/2023,02:52:16,0.000,0.0,0.0,0.0
14/09/2023,02:53:16,0.001,0.0,0.0,0.0
14/09/2023,02:54:15,0.000,0.0,0.0,0.0
14/09/2023,02:55:15,-0.001,0.0,0.0,0.0
14/09/2023,02:56:16,0.000,0.0,0.0,0.0
14/09/2023,02:57:16,0.001,0.0,0.0,0.0
14/09/2023,02:58:16,0.001,0.0,0.0,0.0
14/09/2023,02:59:15,0.000,0.0,0.0,0.0
14/09/2023,03:00:15,0.000,0.0,0.0,0.0
14/09/2023,03:01:16,0.000,0.0,0.0,0.0
14/09/2023,03:02:15,0.000,0.0,0.0,0.0
14/09/2023,03:03:16,-0.001,0.0,0.0,0.0
14/09/2023,03:04:16,0.000,0.0,0.0,0.0
14/09/2023,03:05:16,0.000,0.0,0.0,0.0
14/09/2023,03:06:16,0.000,0.0,0.0,0.0
14/09/2023,03:07:16,0.000,0.0,0.0,0.0
14/09/2023,03:08:15,0.000,0.0,0.0,0.0
14/09/2023,03:09:16,0.000,0.0,0.0,0.0
14/09/2023,03:10:16,0.000,0.0,0.0,0.0
14/09/2023,03:11:15,0.000,0.0,0.0,0.0
14/09/2023,03:12:16,0.000,0.0,0.0,0.0
14/09/2023,03:13:15,0.000,0.0,0.0,0.0
14/09/2023,03:14:14,0.001,0.0,0.0,0.0
14/09/2023,03:15:14,0.000,0.0,0.0,0.0
14/09/2023,03:16:16,0.000,0.0,0.0,0.0
14/09/2023,03:17:16,0.000,0.0,0.0,0.0
14/09/2023,03:18:16,0.001,0.0,0.0,0.0
14/09/2023,03:19:15,0.000,0.0,0.0,0.0
14/09/2023,03:20:15,0.000,0.0,0.0,0.0
14/09/2023,03:21:16,0.000,0.0,0.0,0.0
14/09/2023,03:22:15,0.000,0.0,0.0,0.0
14/09/2023,03:23:16,0.000,0.0,0.0,0.0
14/09/2023,03:24:15,0.000,0.0,0.0,0.0
14/09/2023,03:25:16,-0.001,0.0,0.0,0.0
14/09/2023,03:26:16,0.000,0.0,0.0,0.0
14/09/2023,03:27:16,-0.000,0.0,0.0,0.0
14/09/2023,03:28:16,0.000,0.0,0.0,0.0
14/09/2023,03:29:16,0.000,0.0,0.0,0.0
14/09/2023,03:30:16,0.001,0.0,0.0,0.0
14/09/2023,03:31:15,0.000,0.0,0.0,0.0
14/09/2023,03:32:16,0.000,0.0,0.0,0.0
14/09/2023,03:33:15,0.000,0.0,0.0,0.0
14/09/2023,03:34:16,0.000,0.0,0.0,0.0
14/09/2023,03:35:16,-0.000,0.0,0.0,0.0
14/09/2023,03:36:16,0.001,0.0,0.0,0.0
14/09/2023,03:37:16,0.000,0.0,0.0,0.0
14/09/2023,03:38:16,0.001,0.0,0.0,0.0
14/09/2023,03:39:16,0.000,0.0,0.0,0.0
14/09/2023,03:40:16,0.001,0.0,0.0,0.0
14/09/2023,03:41:16,0.000,0.0,0.0,0.0
14/09/2023,03:42:16,-0.001,0.0,0.0,0.0
14/09/2023,03:43:16,0.000,0.0,0.0,0.0
14/09/2023,03:44:16,-0.001,0.0,0.0,0.0
14/09/2023,03:45:15,0.001,0.0,0.0,0.0
14/09/2023,03:46:15,0.001,0.0,0.0,0.0
14/09/2023,03:47:16,0.000,0.0,0.0,0.0
14/09/2023,03:48:16,0.001,0.0,0.0,0.0
14/09/2023,03:49:16,0.000,0.0,0.0,0.0
14/09/2023,03:50:15,0.000,0.0,0.0,0.0
14/09/2023,03:51:16,0.001,0.0,0.0,0.0
14/09/2023,03:52:16,-0.001,0.0,0.0,0.0
14/09/2023,03:53:16,0.000,0.0,0.0,0.0
14/09/2023,03:54:16,0.000,0.0,0.0,0.0
14/09/2023,03:55:15,0.000,0.0,0.0,0.0
14/09/2023,03:56:15,0.000,0.0,0.0,0.0
14/09/2023,03:57:15,0.000,0.0,0.0,0.0
14/09/2023,03:58:16,0.000,0.0,0.0,0.0
14/09/2023,03:59:16,0.000,0.0,0.0,0.0
14/09/2023,04:00:16,0.000,0.0,0.0,0.0
14/09/2023,04:01:16,0.000,0.0,0.0,0.0
14/09/2023,04:02:16,0.000,0.0,0.0,0.0
14/09/2023,04:03:15,0.000,0.0,0.0,0.0
14/09/2023,04:04:16,0.001,0.0,0.0,0.0
14/09/2023,04:05:15,0.001,0.0,0.0,0.0
14/09/2023,04:06:16,0.000,0.0,0.0,0.0
14/09/2023,04:07:16,0.000,0.0,0.0,0.0
14/09/2023,04:08:16,-0.000,0.0,0.0,0.0
14/09/2023,04:09:15,0.001,0.0,0.0,0.0
14/09/2023,04:10:16,0.001,0.0,0.0,0.0
14/09/2023,04:11:16,0.000,0.0,0.0,0.0
14/09/2023,04:12:16,0.000,0.0,0.0,0.0
14/09/2023,04:13:15,0.002,0.0,0.0,0.0
14/09/2023,04:14:16,0.000,0.0,0.0,0.0
14/09/2023,04:15:16,0.000,0.0,0.0,0.0
14/09/2023,04:16:16,0.000,0.0,0.0,0.0
14/09/2023,04:17:16,0.000,0.0,0.0,0.0
14/09/2023,04:18:16,0.000,0.0,0.0,0.0
14/09/2023,04:19:16,0.000,0.0,0.0,0.0
14/09/2023,04:20:16,0.001,0.0,0.0,0.0
14/09/2023,04:21:16,0.001,0.0,0.0,0.0
14/09/2023,04:22:15,0.001,0.0,0.0,0.0
14/09/2023,04:23:16,0.000,0.0,0.0,0.0
14/09/2023,04:24:16,0.000,0.0,0.0,0.0
14/09/2023,04:25:16,0.000,0.0,0.0,0.0
14/09/2023,04:26:14,-0.001,0.0,0.0,0.0
14/09/2023,04:27:14,0.001,0.0,0.0,0.0
14/09/2023,04:28:15,0.000,0.0,0.0,0.0
14/09/2023,04:29:16,0.001,0.0,0.0,0.0
14/09/2023,04:30:16,0.000,0.0,0.0,0.0
14/09/2023,04:31:16,0.001,0.0,0.0,0.0
14/09/2023,04:32:16,0.001,0.0,0.0,0.0
14/09/2023,04:33:15,0.000,0.0,0.0,0.0
14/09/2023,04:34:16,0.000,0.0,0.0,0.0
14/09/2023,04:35:16,0.002,0.0,0.0,0.0
14/09/2023,04:36:16,0.000,0.0,0.0,0.0
14/09/2023,04:37:16,-0.000,0.0,0.0,0.0
14/09/2023,04:38:16,0.000,0.0,0.0,0.0
14/09/2023,04:39:15,0.002,0.0,0.0,0.0
14/09/2023,04:40:16,-0.000,0.0,0.0,0.0
14/09/2023,04:41:16,0.000,0.0,0.0,0.0
14/09/2023,04:42:16,0.001,0.0,0.0,0.0
14/09/2023,04:43:16,0.000,0.0,0.0,0.0
14/09/2023,04:44:16,0.001,0.0,0.0,0.0
14/09/2023,04:45:16,0.000,0.0,0.0,0.0
14/09/2023,04:46:16,0.001,0.0,0.0,0.0
14/09/2023,04:47:16,0.001,0.0,0.0,0.0
14/09/2023,04:48:15,0.000,0.0,0.0,0.0
14/09/2023,04:49:16,0.001,0.0,0.0,0.0
14/09/2023,04:50:16,0.001,0.0,0.0,0.0
14/09/2023,04:51:16,0.001,0.0,0.0,0.0
14/09/2023,04:52:16,0.001,0.0,0.0,0.0
14/09/2023,04:53:14,0.001,0.0,0.0,0.0
14/09/2023,04:54:14,0.001,0.0,0.0,0.0
14/09/2023,04:55:16,0.001,0.0,0.0,0.0
14/09/2023,04:56:16,0.001,0.0,0.0,0.0
14/09/2023,04:57:16,0.000,0.0,0.0,0.0
14/09/2023,04:58:16,0.001,0.0,0.0,0.0
14/09/2023,04:59:15,0.001,0.0,0.0,0.0
14/09/2023,05:00:16,0.001,0.0,0.0,0.0
14/09/2023,05:01:16,0.000,0.0,0.0,0.0
14/09/2023,05:02:16,0.001,0.0,0.0,0.0
14/09/2023,05:03:16,0.001,0.0,0.0,0.0
14/09/2023,05:04:16,-0.000,0.0,0.0,0.0
14/09/2023,05:05:16,0.001,0.0,0.0,0.0
14/09/2023,05:06:16,0.001,0.0,0.0,0.0
14/09/2023,05:07:16,0.001,0.0,0.0,0.0
14/09/2023,05:08:15,0.000,0.0,0.0,0.0
14/09/2023,05:09:16,0.001,0.0,0.0,0.0
14/09/2023,05:10:16,0.000,0.0,0.0,0.0
14/09/2023,05:11:16,0.001,0.0,0.0,0.0
14/09/2023,05:12:16,0.001,0.0,0.0,0.0
14/09/2023,05:13:16,0.000,0.0,0.0,0.0
14/09/2023,05:14:16,0.001,0.0,0.0,0.0
14/09/2023,05:15:16,0.001,0.0,0.0,0.0
14/09/2023,05:16:16,0.002,0.0,0.0,0.0
14/09/2023,05:17:16,0.002,0.0,0.0,0.0
14/09/2023,05:18:16,0.000,0.0,0.0,0.0
14/09/2023,05:19:16,-0.000,0.0,0.0,0.0
14/09/2023,05:20:15,0.001,0.0,0.0,0.0
14/09/2023,05:21:16,0.000,0.0,0.0,0.0
14/09/2023,05:22:16,0.002,0.0,0.0,0.0
14/09/2023,05:23:16,0.001,0.0,0.0,0.0
14/09/2023,05:24:16,0.001,0.0,0.0,0.0
14/09/2023,05:25:16,0.001,0.0,0.0,0.0
14/09/2023,05:26:16,0.001,0.0,0.0,0.0
14/09/2023,05:27:16,0.002,0.0,0.0,0.0
14/09/2023,05:28:16,0.002,0.0,0.0,0.0
14/09/2023,05:29:15,0.002,0.0,0.0,0.0
14/09/2023,05:30:16,0.002,0.0,0.0,0.0
14/09/2023,05:31:16,0.003,0.0,0.0,0.0
14/09/2023,05:32:16,0.002,0.0,0.0,0.0
14/09/2023,05:33:16,0.002,0.0,0.0,0.0
14/09/2023,05:34:16,0.003,0.0,0.0,0.0
14/09/2023,05:35:16,0.002,0.0,0.0,0.0
14/09/2023,05:36:16,0.003,0.0,0.0,0.0
14/09/2023,05:37:16,0.003,0.0,0.0,0.0
14/09/2023,05:38:16,0.003,0.0,0.0,0.0
14/09/2023,05:39:16,0.003,0.0,0.0,0.0
14/09/2023,05:40:16,0.004,0.0,0.0,0.0
14/09/2023,05:41:16,0.005,0.0,0.0,0.0
14/09/2023,05:42:16,0.005,0.0,0.0,0.0
14/09/2023,05:43:16,0.005,0.0,0.0,0.0
14/09/2023,05:44:14,0.005,0.0,0.0,0.0
14/09/2023,05:45:13,0.006,0.0,0.0,0.0
14/09/2023,05:46:17,0.005,0.0,0.0,0.0
14/09/2023,05:47:16,0.006,0.0,0.0,0.0
14/09/2023,05:48:16,0.006,0.0,0.0,0.0
14/09/2023,05:49:16,0.007,0.0,0.0,0.0
14/09/2023,05:50:15,0.008,0.0,0.0,0.0
14/09/2023,05:51:16,0.007,0.0,0.0,0.0
14/09/2023,05:52:16,0.007,0.0,0.001,0.001
14/09/2023,05:53:16,0.008,0.0,0.001,0.0
14/09/2023,05:54:16,0.008,0.0,0.001,0.0
14/09/2023,05:55:16,0.009,0.0,0.001,0.0
14/09/2023,05:56:16,0.009,0.0,0.001,0.0
14/09/2023,05:57:16,0.010,0.0,0.001,0.0
14/09/2023,05:58:16,0.009,0.0,0.001,0.0
14/09/2023,05:59:16,0.012,0.0,0.002,0.001
14/09/2023,06:00:16,0.012,0.0,0.002,0.0
14/09/2023,06:01:16,0.011,0.0,0.002,0.0
14/09/2023,06:02:16,0.012,0.0,0.002,0.0
14/09/2023,06:03:16,0.012,0.0,0.002,0.0
14/09/2023,06:04:16,0.013,0.0,0.003,0.001
14/09/2023,06:05:16,0.013,0.0,0.003,0.0
14/09/2023,06:06:17,0.014,0.0,0.003,0.0
14/09/2023,06:07:16,0.014,0.0,0.003,0.0
14/09/2023,06:08:16,0.016,0.0,0.003,0.0
14/09/2023,06:09:16,0.016,0.0,0.004,0.001
14/09/2023,06:10:16,0.017,0.0,0.004,0.0
14/09/2023,06:11:16,0.017,0.0,0.004,0.0
14/09/2023,06:12:17,0.018,0.0,0.005,0.001
14/09/2023,06:13:16,0.018,0.0,0.005,0.0
14/09/2023,06:14:16,0.020,0.0,0.005,0.0
14/09/2023,06:15:16,0.020,0.0,0.005,0.0
14/09/2023,06:16:16,0.021,0.0,0.006,0.001
14/09/2023,06:17:16,0.023,0.0,0.006,0.0
14/09/2023,06:18:16,0.023,0.0,0.007,0.001
14/09/2023,06:19:16,0.024,0.0,0.007,0.0
14/09/2023,06:20:16,0.025,0.0,0.007,0.0
14/09/2023,06:21:16,0.026,0.0,0.008,0.001
14/09/2023,06:22:16,0.027,0.0,0.008,0.0
14/09/2023,06:23:16,0.027,0.0,0.009,0.001
14/09/2023,06:24:16,0.028,0.0,0.009,0.0
14/09/2023,06:25:16,0.030,0.0,0.01,0.001
14/09/2023,06:26:14,0.029,0.0,0.01,0.0
14/09/2023,06:27:15,0.031,0.0,0.011,0.001
14/09/2023,06:28:16,0.032,0.0,0.011,0.0
14/09/2023,06:29:17,0.033,0.0,0.012,0.001
14/09/2023,06:30:16,0.035,0.0,0.012,0.0
14/09/2023,06:31:16,0.035,0.0,0.013,0.001
14/09/2023,06:32:16,0.037,0.0,0.013,0.0
14/09/2023,06:33:16,0.038,0.0,0.014,0.001
14/09/2023,06:34:16,0.039,0.0,0.015,0.001
14/09/2023,06:35:16,0.041,0.0,0.015,0.0
14/09/2023,06:36:16,0.042,0.0,0.016,0.001
14/09/2023,06:37:16,0.044,0.0,0.017,0.001
14/09/2023,06:38:16,0.044,0.0,0.017,0.0
14/09/2023,06:39:16,0.046,0.0,0.018,0.001
14/09/2023,06:40:16,0.048,0.0,0.019,0.001
14/09/2023,06:41:16,0.049,0.0,0.02,0.001
14/09/2023,06:42:16,0.051,0.0,0.021,0.001
14/09/2023,06:43:17,0.052,0.0,0.022,0.001
14/09/2023,06:44:16,0.054,0.0,0.022,0.0
14/09/2023,06:45:16,0.055,0.0,0.023,0.001
14/09/2023,06:46:16,0.056,0.0,0.024,0.001
14/09/2023,06:47:16,0.058,0.0,0.025,0.001
14/09/2023,06:48:16,0.059,0.0,0.026,0.001
14/09/2023,06:49:16,0.061,0.0,0.027,0.001
14/09/2023,06:50:16,0.063,0.0,0.028,0.001
14/09/2023,06:51:16,0.065,0.0,0.029,0.001
14/09/2023,06:52:16,0.065,0.0,0.03,0.001
14/09/2023,06:53:16,0.068,0.0,0.031,0.001
14/09/2023,06:54:17,0.071,0.0,0.033,0.002
14/09/2023,06:55:16,0.073,0.0,0.034,0.001
14/09/2023,06:56:16,0.074,0.0,0.035,0.001
14/09/2023,06:57:16,0.076,0.0,0.036,0.001
14/09/2023,06:58:16,0.076,0.0,0.038,0.002
14/09/2023,06:59:17,0.078,0.0,0.039,0.001
14/09/2023,07:00:16,0.080,0.0,0.04,0.001
14/09/2023,07:01:16,0.080,0.0,0.041,0.001
14/09/2023,07:02:17,0.080,0.0,0.043,0.002
14/09/2023,07:03:16,0.082,0.0,0.044,0.001
14/09/2023,07:04:16,0.084,0.0,0.046,0.002
14/09/2023,07:05:16,0.089,0.0,0.047,0.001
14/09/2023,07:06:16,0.088,0.0,0.048,0.001
14/09/2023,07:07:17,0.090,0.0,0.05,0.002
14/09/2023,07:08:16,0.091,0.0,0.052,0.002
14/09/2023,07:09:16,0.092,0.0,0.053,0.001
14/09/2023,07:10:16,0.093,0.0,0.055,0.002
14/09/2023,07:11:16,0.095,0.0,0.056,0.001
14/09/2023,07:12:16,0.097,0.0,0.058,0.002
14/09/2023,07:13:16,0.098,0.0,0.059,0.001
14/09/2023,07:14:16,0.101,0.0,0.061,0.002
14/09/2023,07:15:16,0.105,0.0,0.063,0.002
14/09/2023,07:16:16,0.108,0.0,0.065,0.002
14/09/2023,07:17:16,0.112,0.0,0.066,0.001
14/09/2023,07:18:14,0.115,0.0,0.068,0.002
14/09/2023,07:19:14,0.120,0.0,0.07,0.002
14/09/2023,07:20:16,0.124,0.0,0.072,0.002
14/09/2023,07:21:16,0.128,0.0,0.074,0.002
14/09/2023,07:22:16,0.130,0.0,0.077,0.003
14/09/2023,07:23:17,0.136,0.0,0.079,0.002
14/09/2023,07:24:16,0.140,0.0,0.081,0.002
14/09/2023,07:25:16,0.144,0.0,0.083,0.002
14/09/2023,07:26:16,0.150,0.0,0.086,0.003
14/09/2023,07:27:16,0.154,0.0,0.088,0.002
14/09/2023,07:28:17,0.155,0.0,0.091,0.003
14/09/2023,07:29:16,0.159,0.0,0.094,0.003
14/09/2023,07:30:17,0.163,0.0,0.096,0.002
14/09/2023,07:31:17,0.167,0.0,0.099,0.003
14/09/2023,07:32:16,0.172,0.0,0.102,0.003
14/09/2023,07:33:16,0.182,0.0,0.105,0.003
14/09/2023,07:34:16,0.186,0.0,0.108,0.003
14/09/2023,07:35:16,0.190,0.0,0.111,0.003
14/09/2023,07:36:16,0.191,0.0,0.114,0.003
14/09/2023,07:37:16,0.197,0.0,0.117,0.003
14/09/2023,07:38:16,0.201,0.0,0.121,0.004
14/09/2023,07:39:16,0.205,0.0,0.124,0.003
14/09/2023,07:40:16,0.209,0.0,0.128,0.004
14/09/2023,07:41:16,0.214,0.0,0.131,0.003
14/09/2023,07:42:16,0.217,0.0,0.135,0.004
14/09/2023,07:43:17,0.221,1.0,0.138,0.003
14/09/2023,07:44:16,0.224,1.0,0.142,0.004
14/09/2023,07:45:16,0.216,0.0,0.146,0.004
14/09/2023,07:46:17,0.218,1.0,0.149,0.003
14/09/2023,07:47:16,0.217,0.0,0.153,0.004
14/09/2023,07:48:16,0.219,1.0,0.157,0.004
14/09/2023,07:49:16,0.231,1.0,0.16,0.003
14/09/2023,07:50:16,0.232,1.0,0.164,0.004
14/09/2023,07:51:16,0.232,1.0,0.168,0.004
14/09/2023,07:52:16,0.237,1.0,0.172,0.004
14/09/2023,07:53:16,0.248,1.0,0.176,0.004
14/09/2023,07:54:17,0.266,1.0,0.18,0.004
14/09/2023,07:55:16,0.274,1.0,0.185,0.005
14/09/2023,07:56:16,0.276,1.0,0.189,0.004
14/09/2023,07:57:16,0.284,1.0,0.194,0.005
14/09/2023,07:58:17,0.289,1.0,0.199,0.005
14/09/2023,07:59:16,0.293,1.0,0.204,0.005
14/09/2023,08:00:17,0.296,1.0,0.209,0.005
14/09/2023,08:01:16,0.307,1.0,0.214,0.005
14/09/2023,08:02:17,0.311,1.0,0.219,0.005
14/09/2023,08:03:17,0.317,1.0,0.224,0.005
14/09/2023,08:04:17,0.323,1.0,0.229,0.005
14/09/2023,08:05:16,0.326,1.0,0.235,0.006
14/09/2023,08:06:16,0.329,1.0,0.24,0.005
14/09/2023,08:07:16,0.330,1.0,0.246,0.006
14/09/2023,08:08:16,0.341,1.0,0.251,0.005
14/09/2023,08:09:16,0.347,1.0,0.257,0.006
14/09/2023,08:10:16,0.353,1.0,0.263,0.006
14/09/2023,08:11:17,0.356,1.0,0.269,0.006
14/09/2023,08:12:16,0.357,1.0,0.275,0.006
14/09/2023,08:13:16,0.368,1.0,0.281,0.006
14/09/2023,08:14:16,0.372,1.0,0.287,0.006
14/09/2023,08:15:16,0.375,1.0,0.293,0.006
14/09/2023,08:16:17,0.378,1.0,0.299,0.006
14/09/2023,08:17:17,0.388,1.0,0.306,0.007
14/09/2023,08:18:16,0.397,1.0,0.312,0.006
14/09/2023,08:19:17,0.402,1.0,0.319,0.007
14/09/2023,08:20:17,0.405,1.0,0.326,0.007
14/09/2023,08:21:17,0.402,1.0,0.332,0.006
14/09/2023,08:22:16,0.425,1.0,0.339,0.007
14/09/2023,08:23:16,0.429,1.0,0.346,0.007
14/09/2023,08:24:16,0.439,1.0,0.354,0.008
14/09/2023,08:25:17,0.443,1.0,0.361,0.007
14/09/2023,08:26:16,0.447,1.0,0.368,0.007
14/09/2023,08:27:16,0.457,1.0,0.376,0.008
14/09/2023,08:28:16,0.464,1.0,0.384,0.008
14/09/2023,08:29:16,0.469,1.0,0.391,0.007
14/09/2023,08:30:17,0.475,1.0,0.399,0.008
14/09/2023,08:31:16,0.485,1.0,0.407,0.008
14/09/2023,08:32:16,0.492,1.0,0.415,0.008
14/09/2023,08:33:16,0.497,1.0,0.424,0.009
14/09/2023,08:34:17,0.506,1.0,0.432,0.008
14/09/2023,08:35:16,0.513,1.0,0.44,0.008
14/09/2023,08:36:16,0.521,1.0,0.449,0.009
14/09/2023,08:37:16,0.531,1.0,0.458,0.009
14/09/2023,08:38:16,0.539,1.0,0.467,0.009
14/09/2023,08:39:17,0.543,1.0,0.476,0.009
14/09/2023,08:40:16,0.552,1.0,0.485,0.009
14/09/2023,08:41:16,0.561,1.0,0.494,0.009
14/09/2023,08:42:14,0.569,1.0,0.503,0.009
14/09/2023,08:43:14,0.566,1.0,0.513,0.01
14/09/2023,08:44:14,0.541,1.0,0.522,0.009
14/09/2023,08:45:15,0.528,1.0,0.531,0.009
14/09/2023,08:46:17,0.551,1.0,0.54,0.009
14/09/2023,08:47:17,0.600,1.0,0.55,0.01
14/09/2023,08:48:16,0.622,1.0,0.56,0.01
14/09/2023,08:49:17,0.625,1.0,0.57,0.01
14/09/2023,08:50:16,0.636,1.0,0.581,0.011
14/09/2023,08:51:17,0.651,1.0,0.591,0.01
14/09/2023,08:52:16,0.657,2.0,0.602,0.011
14/09/2023,08:53:16,0.663,2.0,0.613,0.011
14/09/2023,08:54:16,0.671,2.0,0.624,0.011
14/09/2023,08:55:16,0.677,2.0,0.636,0.012
14/09/2023,08:56:17,0.685,2.0,0.647,0.011
14/09/2023,08:57:16,0.692,2.0,0.659,0.012
14/09/2023,08:58:16,0.682,2.0,0.67,0.011
14/09/2023,08:59:17,0.648,1.0,0.681,0.011
14/09/2023,09:00:16,0.695,2.0,0.692,0.011
14/09/2023,09:01:16,0.691,2.0,0.704,0.012
14/09/2023,09:02:15,0.688,2.0,0.715,0.011
14/09/2023,09:03:14,0.715,2.0,0.727,0.012
14/09/2023,09:04:17,0.714,2.0,0.739,0.012
14/09/2023,09:05:17,0.733,2.0,0.751,0.012
14/09/2023,09:06:14,0.742,2.0,0.763,0.012
14/09/2023,09:07:14,0.701,2.0,0.775,0.012
14/09/2023,09:08:16,0.652,2.0,0.787,0.012
14/09/2023,09:09:16,0.637,1.0,0.797,0.01
14/09/2023,09:10:17,0.632,1.0,0.808,0.011
14/09/2023,09:11:16,0.649,1.0,0.818,0.01
14/09/2023,09:12:17,0.642,1.0,0.829,0.011
14/09/2023,09:13:17,0.656,2.0,0.84,0.011
14/09/2023,09:14:17,0.641,1.0,0.851,0.011
14/09/2023,09:15:16,0.680,2.0,0.862,0.011
14/09/2023,09:16:16,0.623,1.0,0.872,0.01
14/09/2023,09:17:17,0.652,2.0,0.883,0.011
14/09/2023,09:18:17,0.663,2.0,0.894,0.011
14/09/2023,09:19:17,0.693,2.0,0.905,0.011
14/09/2023,09:20:16,0.702,2.0,0.917,0.012
14/09/2023,09:21:16,0.706,2.0,0.929,0.012
14/09/2023,09:22:16,0.827,2.0,0.942,0.013
14/09/2023,09:23:17,0.805,2.0,0.956,0.014
14/09/2023,09:24:16,0.856,2.0,0.97,0.014
14/09/2023,09:25:17,0.859,2.0,0.984,0.014
14/09/2023,09:26:16,0.858,2.0,0.998,0.014
14/09/2023,09:27:17,0.863,2.0,1.013,0.015
14/09/2023,09:28:16,0.831,2.0,1.027,0.014
14/09/2023,09:29:16,0.881,2.0,1.042,0.015
14/09/2023,09:30:16,0.882,2.0,1.056,0.014
14/09/2023,09:31:16,0.865,2.0,1.07,0.014
14/09/2023,09:32:16,0.891,2.0,1.085,0.015
14/09/2023,09:33:17,0.899,2.0,1.1,0.015
14/09/2023,09:34:16,0.898,2.0,1.115,0.015
14/09/2023,09:35:16,0.903,2.0,1.13,0.015
14/09/2023,09:36:16,0.903,2.0,1.145,0.015
14/09/2023,09:37:16,0.891,2.0,1.16,0.015
14/09/2023,09:38:15,0.920,2.0,1.175,0.015
14/09/2023,09:39:15,0.928,2.0,1.19,0.015
14/09/2023,09:40:17,0.937,2.0,1.206,0.016
14/09/2023,09:41:17,0.953,2.0,1.222,0.016
14/09/2023,09:42:17,0.959,2.0,1.238,0.016
14/09/2023,09:43:16,0.977,2.0,1.254,0.016
14/09/2023,09:44:16,0.987,2.0,1.27,0.016
14/09/2023,09:45:17,0.995,2.0,1.287,0.017
14/09/2023,09:46:16,0.986,2.0,1.303,0.016
14/09/2023,09:47:16,1.015,2.0,1.32,0.017
14/09/2023,09:48:16,1.018,2.0,1.337,0.017
14/09/2023,09:49:16,1.025,2.0,1.354,0.017
14/09/2023,09:50:16,1.033,2.0,1.371,0.017
14/09/2023,09:51:15,1.019,2.0,1.388,0.017
14/09/2023,09:52:15,1.014,2.0,1.405,0.017
14/09/2023,09:53:16,1.032,2.0,1.422,0.017
14/09/2023,09:54:17,1.030,2.0,1.439,0.017
14/09/2023,09:55:16,1.056,2.0,1.457,0.018
14/09/2023,09:56:17,1.061,2.0,1.474,0.017
14/09/2023,09:57:16,1.056,2.0,1.492,0.018
14/09/2023,09:58:16,1.081,2.0,1.51,0.018
14/09/2023,09:59:16,1.100,3.0,1.528,0.018
14/09/2023,10:00:16,1.095,3.0,1.546,0.018
14/09/2023,10:01:17,1.109,3.0,1.564,0.018
14/09/2023,10:02:16,1.110,3.0,1.583,0.019
14/09/2023,10:03:16,1.117,3.0,1.601,0.018
14/09/2023,10:04:16,1.120,3.0,1.62,0.019